Weather Service Report


054 
ASUS43 KDTX 190310
RWRMI 
MICHIGAN HOURLY REGIONAL WEATHER ROUNDUP
NATIONAL WEATHER SERVICE DETROIT/PONTIAC MI
1100 PM EDT FRI AUG 18 2017

NOTE: "FAIR" INDICATES FEW OR NO CLOUDS BELOW 12,000 FEET WITH NO
SIGNIFICANT WEATHER AND/OR OBSTRUCTION TO VISIBILITY.

MIZ047>049-052>055-059>063-066>070-074>076-081>083-190400-
SOUTHEAST LOWER MICHIGAN
  
CITY           SKY/WX    TMP DP  RH WIND       PRES   REMARKS
ADRIAN         FAIR      66  61  84 NW3       29.90R                  
ALMA           CLOUDY    64  60  87 SW3       29.86S                  
ANN ARBOR      FAIR      62  60  93 SW5       29.87S                  
BAD AXE        CLOUDY    65  61  87 W6        29.84R                  
CARO           CLOUDY    65  59  80 W5        29.84S                  
DETROIT CITY   CLOUDY    71  57  61 W9        29.86R                  
DETROIT        FAIR      69  60  73 W6        29.87S                  
FLINT          CLOUDY    67  59  75 W7        29.86S                  
GROSSE ILE     FAIR      69  60  73 NW5       29.86S                  
HILLSDALE      CLOUDY    61  59  94 CALM      29.89S                  
HOWELL         CLOUDY    65  59  81 SW3       29.88R                  

CITY           SKY/WX    TMP DP  RH WIND       PRES   REMARKS
JACKSON        CLOUDY    65  60  84 CALM      29.89R                  
LAMBERTVILLE   FAIR      64  62  93 CALM      29.88R                  
LANSING        FAIR      63  58  83 SW7       29.88R                  
LAPEER         CLOUDY    68  59  73 NW7       29.86S                  
MASON          FAIR      65  60  84 CALM      29.89R                  
MONROE         FAIR      64  61  88 W3        29.87S                  
MT. CLEMENS    MOCLDY    71  60  68 W8        29.84R                  
PONTIAC        CLOUDY    68  60  75 W10       29.86S                  
PORT HOPE        N/A     66  60  81 W7        29.80R                  
PORT HURON     CLOUDY    70  61  73 W7        29.85R                  
TRI CITIES     CLOUDY    65  62  90 SW6       29.85S                  
MIDLAND        CLOUDY    64  59  83 CALM      29.84R                  
TROY           CLOUDY    71  58  63 W8        29.88S                  
SAGINAW HB     MOCLDY    64  59  82 W5        29.84S                  
$$
MIZ043>046-050>051-056>058-064>065-071>073-077>080-190400-
SOUTHWEST LOWER MICHIGAN
  
CITY           SKY/WX    TMP DP  RH WIND       PRES   REMARKS
BATTLE CREEK   FAIR      65  61  87 CALM      29.89S                  
BENTON HARBOR  FAIR      65  61  87 CALM      29.88R                  
BIG RAPIDS     MOCLDY    63  60  90 CALM      29.85S                  
COLDWATER      CLOUDY    64  64  99 CALM      29.89S                  
FREMONT        CLOUDY    64  64  99 SW3       29.85S                  
HOLLAND        MOCLDY    64  61  90 CALM      29.88R                  
GRAND RAPIDS   FAIR      64  62  93 SW6       29.87R                  
IONIA          FAIR      64  59  84 SW5       29.86S                  
KALAMAZOO      FAIR      64  58  80 CALM      29.89R                  
LUDINGTON      MOCLDY    67  61  80 N12       29.84R                  
MARSHALL       FAIR      62  61  97 CALM      29.89S                  
MOUNT PLEASANT MOCLDY    66  60  79 SW3       29.84S                  
MUSKEGON       CLOUDY    68  62  81 SW3       29.87R                  
SOUTH HAVEN    MOCLDY    64  63  94 CALM      29.88S                  
$$
MIZ016>042-190400-
NORTHERN LOWER MICHIGAN
  
CITY           SKY/WX    TMP DP  RH WIND       PRES   REMARKS
ALPENA         CLOUDY    63  59  87 W8        29.79R                  
BEAVER ISLAND  CLOUDY    62  58  87 NW8G16    29.80F                  
BELLAIRE       CLOUDY    62  58  87 CALM      29.82S                  
CADILLAC       DRIZZLE   64  61  90 W5        29.85R                  
CHARLEVOIX     CLOUDY    64  58  82 NW12      29.84R                  
FRANKFORT      MOCLDY    65  59  81 CALM      29.84S                  
GAYLORD        CLOUDY    59  56  89 W8        29.82R                  
GRAYLING       FAIR      59  56  91 W5        29.84S                  
HARBOR SPRINGS RAIN      61  59  92 W6        29.81R                  
HOUGHTON LAKE  MOCLDY    62  59  90 W6        29.84S                  
MANISTEE       CLOUDY    64  60  87 CALM      29.84R                  
OSCODA         CLOUDY    65  58  77 W13G20    29.80S                  
PELLSTON       CLOUDY    62  58  86 W10       29.79S                  
ROGERS CITY    CLOUDY    62  56  81 W7        29.78R                  
TRAVERSE CITY  FAIR      62  58  86 NW7       29.82S                  
$$
MIZ007>008-015-190400-
EASTERN UPPER MICHIGAN
  
CITY           SKY/WX    TMP DP  RH WIND       PRES   REMARKS
KINROSS        LGT RAIN  59  58  96 W10       29.76R FOG              
MACKINAC ISLAN CLOUDY    62  61  97 W12G17    29.77S                  
NEWBERRY       CLOUDY    58  57  97 W7        29.78S                  
S. S. MARIE    CLOUDY    60  59  96 W8        29.73F FOG              
MUNISING         N/A     63  61  93 NW12      29.80S                  
$$
MIZ004>006-011>014-085-190400-
CENTRAL UPPER MICHIGAN
  
CITY           SKY/WX    TMP DP  RH WIND       PRES   REMARKS
MANISTIQUE     CLOUDY    59  53  81 NW3       29.80F                  
ESCANABA       CLOUDY    62  59  90 CALM      29.83R                  
MENOMINEE      MOCLDY    61  58  90 CALM      29.86R                  
SAWYER-GWINN   FAIR      58  55  92 NW7       29.84R                  
$$
MIZ001>003-009>011-084-190400-
WESTERN UPPER MICHIGAN
  
CITY           SKY/WX    TMP DP  RH WIND       PRES   REMARKS
IRON MOUNTAIN  FAIR      59  54  83 CALM      29.85R                  
HOUGHTON         N/A     59  55  87 MISG      29.84R                  
COPPER HARBOR    N/A     61  56  83 N10       29.81R                  
IRONWOOD       FAIR      59  58  96 CALM      29.88R                  
$$

ABBREVIATIONS USED IN REMARKS
   TC - TEMPERATURE IN CELSIUS
  WCI - WIND CHILL INDEX
   HX - HEAT INDEX
  VSB - VISIBILITY

  


171 
ASUS43 KDTX 190310
RWRMI 
MICHIGAN HOURLY REGIONAL WEATHER ROUNDUP
NATIONAL WEATHER SERVICE DETROIT/PONTIAC MI
ISSUED BY NATIONAL WEATHER SERVICE GRAND RAPIDS MI
1100 PM EDT FRI AUG 18 2017

NOTE: "FAIR" INDICATES FEW OR NO CLOUDS BELOW 12,000 FEET WITH NO
SIGNIFICANT WEATHER AND/OR OBSTRUCTION TO VISIBILITY.

MIZ047>049-052>055-059>063-066>070-074>076-081>083-190400-
SOUTHEAST LOWER MICHIGAN
  
CITY           SKY/WX    TMP DP  RH WIND       PRES   REMARKS
ADRIAN         FAIR      66  61  84 NW3       29.90R                  
ALMA           CLOUDY    64  60  87 SW3       29.86S                  
ANN ARBOR      FAIR      62  60  93 SW5       29.87S                  
BAD AXE        CLOUDY    65  61  87 W6        29.84R                  
DETROIT CITY   CLOUDY    71  57  61 W9        29.86R                  
DETROIT        FAIR      69  60  73 W6        29.87S                  
FLINT          CLOUDY    67  59  75 W7        29.86S                  
GROSSE ILE     FAIR      69  60  73 NW5       29.86S                  
HILLSDALE      CLOUDY    61  59  94 CALM      29.89S                  
HOWELL         CLOUDY    65  59  81 SW3       29.88R                  

CITY           SKY/WX    TMP DP  RH WIND       PRES   REMARKS
JACKSON        CLOUDY    65  60  84 CALM      29.89R                  
LANSING        FAIR      63  58  83 SW7       29.88R                  
MASON          FAIR      65  60  84 CALM      29.89R                  
MONROE         FAIR      64  61  88 W3        29.87S                  
MT. CLEMENS    MOCLDY    71  60  68 W8        29.84R                  
PONTIAC        CLOUDY    68  60  75 W10       29.86S                  
PORT HOPE        N/A     66  60  81 W7        29.80R                  
PORT HURON     CLOUDY    70  61  73 W7        29.85R                  
TRI CITIES     CLOUDY    65  62  90 SW6       29.85S                  
YPSILANTI      FAIR      67  61  81 W5        29.88R                  
$$
MIZ043>046-050>051-056>058-064>065-071>073-077>080-190400-
SOUTHWEST LOWER MICHIGAN
  
CITY           SKY/WX    TMP DP  RH WIND       PRES   REMARKS
BATTLE CREEK   FAIR      65  61  87 CALM      29.89S                  
BENTON HARBOR  FAIR      65  61  87 CALM      29.88R                  
BIG RAPIDS     MOCLDY    63  60  90 CALM      29.85S                  
COLDWATER      CLOUDY    64  64  99 CALM      29.89S                  
HOLLAND        MOCLDY    64  61  90 CALM      29.88R                  
GRAND RAPIDS   FAIR      64  62  93 SW6       29.87R                  
KALAMAZOO      FAIR      64  58  80 CALM      29.89R                  
MARSHALL       FAIR      62  61  97 CALM      29.89S                  
MOUNT PLEASANT MOCLDY    66  60  79 SW3       29.84S                  
MUSKEGON       CLOUDY    68  62  81 SW3       29.87R                  
STURGIS        CLOUDY    65  63  93 W7        29.89R                  
$$
MIZ016>042-190400-
NORTHERN LOWER MICHIGAN
  
CITY           SKY/WX    TMP DP  RH WIND       PRES   REMARKS
ALPENA         CLOUDY    63  59  87 W8        29.79R                  
BEAVER ISLAND  CLOUDY    62  58  87 NW8G16    29.80F                  
BELLAIRE       CLOUDY    62  58  87 CALM      29.82S                  
CADILLAC       DRIZZLE   64  61  90 W5        29.85R                  
CHARLEVOIX     CLOUDY    64  58  82 NW12      29.84R                  
GAYLORD        CLOUDY    59  56  89 W8        29.82R                  
HOUGHTON LAKE  MOCLDY    62  59  90 W6        29.84S                  
MANISTEE       CLOUDY    64  60  87 CALM      29.84R                  
OSCODA         CLOUDY    65  58  77 W13G20    29.80S                  
PELLSTON       CLOUDY    62  58  86 W10       29.79S                  
TRAVERSE CITY  FAIR      62  58  86 NW7       29.82S                  
LUDINGTON      MOCLDY    67  61  80 N12       29.84R                  
$$
MIZ007>008-015-190400-
EASTERN UPPER MICHIGAN
  
CITY           SKY/WX    TMP DP  RH WIND       PRES   REMARKS
KINROSS        LGT RAIN  59  58  96 W10       29.76R FOG              
MACKINAC ISLAN CLOUDY    62  61  97 W12G17    29.77S                  
NEWBERRY       CLOUDY    58  57  97 W7        29.78S                  
S. S. MARIE    CLOUDY    60  59  96 W8        29.73F FOG              
$$
MIZ004>006-011>014-085-190400-
CENTRAL UPPER MICHIGAN
  
CITY           SKY/WX    TMP DP  RH WIND       PRES   REMARKS
MANISTIQUE     CLOUDY    59  53  81 NW3       29.80F                  
ESCANABA       CLOUDY    62  59  90 CALM      29.83R                  
MENOMINEE      MOCLDY    61  58  90 CALM      29.86R                  
SAWYER-GWINN   FAIR      58  55  92 NW7       29.84R                  
$$
MIZ001>003-009>011-084-190400-
WESTERN UPPER MICHIGAN
  
CITY           SKY/WX    TMP DP  RH WIND       PRES   REMARKS
IRON MOUNTAIN  FAIR      59  54  83 CALM      29.85R                  
HOUGHTON         N/A     59  55  87 MISG      29.84R                  
COPPER HARBOR    N/A     61  56  83 N10       29.81R                  
IRONWOOD       FAIR      59  58  96 CALM      29.88R                  
$$

ABBREVIATIONS USED IN REMARKS
   TC - TEMPERATURE IN CELSIUS
  WCI - WIND CHILL INDEX
   HX - HEAT INDEX
  VSB - VISIBILITY

  

Return to Home page


Western Regional Climate Center, wrcc@dri.edu